EW5401 Weather Reports


Display with metric or nautical units.
time (UTC)temp
F
wind
direction
speed
MPH
gust
MPH
rain 1hr
in
rain 24hr
in
rain mn
in
humidity
%
barometer
mb
20260510081551 50 316 0.0 0.0 0.00 0.39 0.00 95 1010.4
20260510080052 50 316 0.0 0.0 0.00 0.39 0.00 95 1010.6
20260510074550 49 316 0.0 0.0 0.00 0.40 0.00 95 1010.8
20260510073050 49 316 0.0 2.0 0.00 0.40 0.00 95 1010.7
20260510071552 49 316 0.0 0.0 0.00 0.40 0.00 95 1010.8
20260510070045 49 316 0.0 0.0 0.00 0.40 0.00 94 1010.5
20260510064543 49 316 0.0 0.0 0.00 0.40 0.00 94 1010.2
20260510063042 49 316 0.0 0.0 0.00 0.40 0.00 94 1010.2
20260510061542 49 316 0.0 0.0 0.00 0.40 0.00 94 1010.1
20260510060039 50 316 0.0 0.0 0.00 0.40 0.00 94 1010.3
20260510054538 50 316 0.0 0.0 0.00 0.40 0.00 94 1010.5
20260510053052 50 316 0.0 0.0 0.00 0.40 0.00 93 1010.4
20260510051540 50 316 0.0 0.0 0.00 0.40 0.00 93 1010.2
20260510050038 51 200 0.0 2.0 0.00 0.40 0.00 93 1010.2
20260510044533 51 200 0.0 0.0 0.00 0.40 0.00 93 1010.3
20260510043041 51 198 0.0 0.0 0.00 0.40 0.00 93 1010.2
20260510041528 52 198 0.0 0.0 0.00 0.40 0.00 93 1010.6
20260510040033 52 198 0.0 0.0 0.00 0.40 0.00 92 1010.4
20260510034521 52 198 0.0 2.0 0.00 0.40 0.40 92 1010.1
20260510033020 52 204 1.0 4.0 0.00 0.40 0.40 92 1010.3
20260510031523 52 65 0.0 7.0 0.00 0.40 0.40 93 1010.2
20260510030019 52 234 0.0 7.0 0.00 0.40 0.40 93 1010.2
20260510024519 52 218 2.0 4.0 0.00 0.40 0.40 93 1010.3
20260510023021 51 180 0.0 3.0 0.00 0.40 0.40 94 1010.2
20260510021531 51 215 0.0 2.0 0.00 0.40 0.40 94 1010.4
20260510020017 51 214 0.0 2.0 0.00 0.40 0.40 94 1010.3
20260510014519 51 157 0.0 3.0 0.00 0.40 0.40 94 1010.4
20260510013022 50 167 0.0 3.0 0.00 0.40 0.40 93 1010.3
20260510011514 50 207 1.0 6.0 0.00 0.40 0.40 93 1010.5
20260510010014 50 108 0.0 0.0 0.00 0.40 0.40 93 1010.5
20260510004613 50 108 0.0 0.0 0.00 0.40 0.40 92 1010.1
20260510003013 51 108 0.0 0.0 0.00 0.40 0.40 91 1009.8
20260510001513 52 108 0.0 0.0 0.00 0.40 0.40 90 1009.5
20260510000012 52 108 0.0 3.0 0.00 0.40 0.40 89 1009.2
20260509234512 53 201 3.0 8.0 0.00 0.40 0.40 89 1009.0
20260509233011 53 146 0.0 6.0 0.00 0.40 0.40 90 1009.1
20260509231509 53 157 1.0 5.0 0.00 0.40 0.40 91 1009.2
20260509230010 53 178 0.0 5.0 0.00 0.40 0.40 91 1009.2
20260509224509 53 215 0.0 5.0 0.00 0.40 0.40 91 1009.5
20260509223008 53 233 1.0 6.0 0.00 0.40 0.40 90 1009.6
20260509221506 53 201 0.0 4.0 0.00 0.40 0.40 90 1009.6
20260509220009 53 184 0.0 1.0 0.00 0.40 0.40 91 1009.4
20260509214504 53 223 0.0 3.0 0.00 0.41 0.40 91 1009.4
20260509213006 53 140 0.0 6.0 0.00 0.41 0.40 92 1009.6
20260509211505 53 229 0.0 4.0 0.01 0.41 0.40 91 1009.5
20260509210001 53 236 0.0 8.0 0.02 0.41 0.40 91 1009.7
20260509204600 53 184 1.0 11.0 0.03 0.41 0.40 91 1009.8
20260509203115 53 237 2.0 8.0 0.04 0.41 0.40 91 1010.1
20260509201556 53 227 2.0 6.0 0.04 0.40 0.39 91 1010.2
20260509200055 54 214 2.0 8.0 0.04 0.39 0.38 91 1010.4
20260509194552 54 142 0.0 8.0 0.05 0.38 0.37 92 1010.6
20260509193058 54 218 2.0 4.0 0.04 0.37 0.36 93 1010.6
20260509191601 54 229 1.0 4.0 0.04 0.36 0.35 93 1010.6
20260509190054 54 188 0.0 3.0 0.04 0.35 0.34 93 1010.6
20260509184558 53 231 0.0 2.0 0.02 0.33 0.32 93 1010.6
20260509183055 53 341 0.0 0.0 0.03 0.33 0.32 93 1010.5
20260509181545 53 341 0.0 2.0 0.03 0.32 0.31 92 1010.7
20260509180044 52 341 0.0 2.0 0.02 0.31 0.30 93 1010.8
20260509174558 52 338 0.0 0.0 0.03 0.32 0.30 93 1010.8
20260509173047 51 338 0.0 2.0 0.03 0.31 0.28 93 1010.8
20260509171533 51 337 0.0 3.0 0.02 0.30 0.28 92 1011.0
20260509170034 51 123 0.0 0.0 0.03 0.30 0.28 93 1011.3
20260509164528 50 123 0.0 2.0 0.02 0.28 0.27 92 1011.7
20260509163034 50 18 0.0 0.0 0.01 0.28 0.26 92 1011.7
20260509161521 49 18 0.0 2.0 0.02 0.28 0.26 92 1011.7
20260509160019 49 292 0.0 0.0 0.01 0.27 0.25 92 1011.9
20260509154516 49 292 0.0 0.0 0.01 0.27 0.25 91 1012.0
20260509153019 49 292 0.0 1.0 0.01 0.27 0.25 92 1012.1
20260509151607 48 292 0.0 1.0 0.00 0.26 0.24 93 1012.2
20260509150004 47 292 0.0 2.0 0.01 0.26 0.24 94 1012.4
20260509144501 47 292 0.0 1.0 0.01 0.26 0.24 94 1012.3
20260509143100 46 292 0.0 1.0 0.02 0.26 0.24 94 1012.2
20260509141556 45 292 0.0 0.0 0.02 0.26 0.24 94 1012.3
20260509140054 45 292 0.0 1.0 0.01 0.25 0.23 95 1012.5
20260509134551 44 292 0.0 1.0 0.01 0.25 0.23 94 1012.4
20260509133049 44 292 0.0 2.0 0.00 0.24 0.22 95 1012.4
20260509131545 43 292 0.0 0.0 0.00 0.24 0.22 94 1012.5
20260509130050 43 292 0.0 0.0 0.00 0.24 0.22 95 1012.8
20260509124550 42 292 0.0 1.0 0.01 0.24 0.22 95 1012.9
20260509123040 42 292 0.0 2.0 0.01 0.24 0.22 95 1012.8
20260509121537 41 46 0.0 0.0 0.01 0.24 0.22 95 1013.1
20260509120035 41 46 0.0 2.0 0.01 0.24 0.22 94 1013.0
20260509114532 41 46 0.0 0.0 0.01 0.23 0.21 94 1013.1
20260509113031 40 46 0.0 0.0 0.03 0.23 0.21 94 1013.1
20260509111528 40 46 1.0 4.0 0.03 0.23 0.21 94 1013.2
20260509110027 40 61 0.0 0.0 0.05 0.23 0.21 94 1013.2
20260509104526 40 61 0.0 2.0 0.07 0.22 0.20 94 1013.4
20260509103025 39 61 0.0 2.0 0.08 0.20 0.18 94 1013.4
20260509101531 39 61 0.0 0.0 0.09 0.19 0.17 93 1013.6
20260509100026 39 61 0.0 1.0 0.09 0.18 0.16 93 1013.6
20260509094522 39 61 0.0 2.0 0.07 0.15 0.13 93 1013.4
20260509093024 39 61 0.0 3.0 0.06 0.12 0.10 93 1013.4
20260509091521 39 61 0.0 3.0 0.06 0.10 0.08 93 1013.5
20260509090033 39 79 0.0 2.0 0.06 0.09 0.07 92 1013.3
20260509084517 38 35 0.0 2.0 0.05 0.07 0.05 92 1013.4
20260509083030 38 82 0.0 0.0 0.04 0.06 0.04 91 1013.5